Oaxaca, Mexico

8:44 AM CDT on July 23, 2017 (GMT -0500)
Xoxocotlan International

Weather History for MMOX - November, 2012

Change the Weather History Date:

Thursday, November 1, 2012

  Actual Average Record
Temperature  
Mean Temperature 68 °F -  
Max Temperature 82 °F 78 °F 90 °F (2013)
Min Temperature 53 °F 50 °F 46 °F (2011)
Cooling Degree Days 2    
Growing Degree Days 18 (Base 50)    
Moisture  
Dew Point 50 °F    
Average Humidity 55    
Maximum Humidity 100    
Minimum Humidity 23    
Precipitation  
Precipitation 0.00 in - - ()
Sea Level Pressure  
Sea Level Pressure 30.07 in    
Wind  
Wind Speed 3 mph ()    
Max Wind Speed 7 mph    
Max Gust Speed -    
Visibility 9.3 miles    
Events      
Averages and records for this station are not official NWS values.
T = Trace of Precipitation, MM = Missing Value Source: Averaged Metar Reports

Daily Weather History Graph

Daily Weather History Graph

Search for Another Location

Airport or City:

Trip Planner

Search our weather history database for the weather conditions in past years. The results will help you decide how hot, cold, wet, or windy it might be!

Date:

Astronomy

Nov. 01, 2012 Rise Set
Actual Time 6:25 AM CST 5:55 PM CST
Civil Twilight 6:02 AM CST 6:17 PM CST
Nautical Twilight 5:37 AM CST 6:43 PM CST
Astronomical Twilight 5:11 AM CST 7:09 PM CST
Moon 8:11 PM CST (11/1) 8:41 AM CST (11/1)
Length of Visible Light 12h 14m
Length of Day
11h 30m
Waning Gibbous, 92% of the Moon is Illuminated
Nov 1
Waning Gibbous
Nov 6
Last Quarter
Nov 13
New
Nov 20
First Quarter
Nov 28
Full

Hourly Weather History & Observations

Time (CST) Temp. Dew Point Humidity Pressure Visibility Wind Dir Wind Speed Gust Speed Precip Events Conditions
2:45 AM 59 °F 56 °F 87% 30.00 in 6 mi West 2.2 mph - -   Partly Cloudy
6:08 AM 51.8 °F 51.8 °F 100% 30.01 in 8.0 mi NW 2.3 mph - N/A   Mostly Cloudy
6:42 AM 51.8 °F 50.0 °F 94% 30.25 in 10.0 mi NNW 3.5 mph - N/A   Mostly Cloudy
7:43 AM 55.4 °F 53.6 °F 94% 30.27 in 10.0 mi North 4.6 mph - N/A   Mostly Cloudy
8:30 AM 63 °F 53 °F 60% 30.10 in 12 mi North 2.2 mph - -   Partly Cloudy
9:43 AM 64.4 °F 53.6 °F 68% 30.28 in 10.0 mi NW 5.8 mph - N/A   Mostly Cloudy
10:42 AM 69.8 °F 50.0 °F 49% 30.26 in 10.0 mi NE 4.6 mph - N/A   Mostly Cloudy
11:30 AM 76 °F 53 °F 35% 30.04 in 7 mi NNW 2.2 mph - -   Partly Cloudy
11:43 AM 71.6 °F 51.8 °F 50% 29.93 in 10.0 mi East 4.6 mph - N/A   Scattered Clouds
12:41 PM 75.2 °F 50.0 °F 41% 30.19 in 12.0 mi South 6.9 mph - N/A   Mostly Cloudy
1:45 PM 77.0 °F 44.6 °F 32% 30.15 in 12.0 mi SSE 6.9 mph - N/A   Mostly Cloudy
2:45 PM 77.0 °F 44.6 °F 32% 29.83 in 12.0 mi SSW 6.9 mph - N/A   Mostly Cloudy
2:50 PM 80 °F 49 °F 23% 29.86 in 9 mi SSW 4.5 mph - -   Partly Cloudy
3:45 PM 77.0 °F 44.6 °F 32% 30.11 in 12.0 mi South 5.8 mph - N/A   Mostly Cloudy
4:45 PM 75.2 °F 48.2 °F 38% 30.12 in 12.0 mi Calm Calm - N/A   Mostly Cloudy
5:45 PM 71.6 °F 51.8 °F 50% 29.87 in 10.0 mi ENE 5.8 mph - N/A   Mostly Cloudy
5:50 PM 72 °F 53 °F 40% 29.83 in 9 mi SSE 2.2 mph - -   Partly Cloudy
6:45 PM 68.0 °F 50.0 °F 52% 30.15 in 8.0 mi WNW 5.8 mph - N/A   Mostly Cloudy
7:45 PM 64.4 °F 48.2 °F 56% 30.19 in 8.0 mi Calm Calm - N/A   Overcast
8:45 PM 62.6 °F 50.0 °F 63% 29.96 in 8.0 mi Calm Calm - N/A   Mostly Cloudy
8:50 PM 65 °F 49 °F 46% 29.91 in 6 mi NE 2.2 mph - -   Clear
9:52 PM 60.8 °F 50.0 °F 68% 30.25 in 8.0 mi Calm Calm - N/A   Scattered Clouds
11:55 PM 61 °F 51 °F 60% 29.95 in 6 mi North 2.2 mph - -   Partly Cloudy